{"data":{"norad_id":66013,"epoch":"2026-09-20T00:23:00.674592Z","epoch_age_seconds":144919,"freshness":"FRESH","line1":"1 66013U 25232J   26263.01598003  .00012769  00000+0  38841-3 0  9996","line2":"2 66013  53.1585 278.0332 0001059  95.3543 264.7581 15.34399822 53236","mean_motion":15.34399822,"eccentricity":0.0001059,"inclination_deg":53.1585,"raan_deg":278.0332,"arg_perigee_deg":95.3543,"mean_anomaly_deg":264.7581,"bstar":0.00038841,"rev_number":5323,"period_min":93.847768968263,"perigee_km":461.9793242232,"apogee_km":463.42821429813,"semimajor_km":6840.8407692607,"source":"CELESTRAK","updated_at":"2026-09-21T09:00:35.769746Z"}}